Regional Weather Roundup
Issued by NWS

Home | Current Version | Previous Version | Text Only | Print | Product List | Glossary Off
Versions: 1 2 3 4 5 6 7 8 9 10 11 12 13 14 15 16 17 18 19 20 21 22 23 24 25 26 27 28 29 30 31 32 33 34 35 36 37 38 39 40 41 42 43 44 45 46 47 48 49

000
ASUS45 KSLC 270010
RWRUT

UTAH REGIONAL WEATHER ROUNDUP
NATIONAL WEATHER SERVICE SALT LAKE CITY UT
500 PM MST THU FEB 26 2015

UTZ001>011-023>025-270100-

NORTHERN UTAH

CITY           SKY/WX    TMP DP  RH WIND       PRES   REMARKS
BRIGHAM CITY   PTSUNNY   39  30  71 SW7       29.92S WCI  34
HILL AFB       PTSUNNY   38  28  69 NW8       29.90S WCI  32
LOGAN          FLURRIES  36  27  69 N16       29.91R WCI  26
OGDEN          CLOUDY    39  28  64 N7        29.90S WCI  34
PROVO AIRPORT  CLOUDY    37  30  75 W13       29.90S WCI  29
SALT LAKE CITY PTSUNNY   38  33  82 W8        29.90F WCI  32
VERNAL         PTSUNNY   37  17  44 SW5       29.85S WCI  33
WENDOVER       CLOUDY    43  21  42 NE7       29.92F
HEBER CITY     CLOUDY    36  28  75 SW7       29.84S WCI  30
WEST JORDAN    CLOUDY    34  34 100 W7        29.92S WCI  28

$$

UTZ012>022-026-027-270100-

SOUTHERN/CENTRAL UTAH

CITY           SKY/WX    TMP DP  RH WIND       PRES   REMARKS
BLANDING       CLOUDY    31  28  90 NE7       29.94S WCI  24
BRYCE CANYON   MOSUNNY   32  20  61 NW13      29.85S WCI  22
CEDAR CITY     CLOUDY    43  23  45 NE7       29.84S
DELTA          CLOUDY    41  24  52 NW12      29.90S
HANKSVILLE     PTSUNNY   41  30  65 S5        29.88F
MILFORD        MOSUNNY   46  24  42 NE17      29.87R
MOAB/CYNLANDS  CLOUDY    41  26  55 SW10      29.85S
PRICE          LGT SNOW  36  23  59 MISG      29.84R
ST GEORGE      MOCLDY    63  27  25 SW10      29.80S
KANAB          MOSUNNY   50  23  34 W10       29.85S

$$

REGIONAL REPORTS     COLORADO/ARIZONA

CITY           SKY/WX    TMP DP  RH WIND       PRES   REMARKS
CRAIG, CO      LGT SNOW  27  21  78 CALM      29.86F
GRAND JUNCTION CLOUDY    41  17  38 W6        29.84F
RIFLE          PTSUNNY   38  16  40 W12       29.83F WCI  30
MONTROSE       CLOUDY    32  19  58 E6        29.87F WCI  26
CORTEZ         FLURRIES  36  22  56 VRB3      29.88R
PAGE, AZ       PTSUNNY   50  31  48 N5        29.80R
GRAND CANYON   PTSUNNY   45  19  35 W10G21    29.85S
KINGMAN        MOSUNNY   63  18  17 N12       29.82S
FLAGSTAFF      CLOUDY    39  25  57 SW16G25   29.87F WCI  30

$$

REGIONAL REPORTS    NEVADA/IDAHO/WYOMING

CITY           SKY/WX    TMP DP  RH WIND       PRES   REMARKS
LAS VEGAS, NV  MOSUNNY   69  18  14 SE9       29.72F
ELY            CLOUDY    40  15  36 NW18G25   29.91F WCI  31
ELKO           CLOUDY    40  27  59 CALM      29.95S
POCATELLO, ID  MOSUNNY   42  11  28 NW8       29.92F
BURLEY         MOSUNNY   42  19  39 VRB3      29.92F
EVANSTON, WY   SNOW      25  21  85 E8        29.85S VSB 1/2 WCI  16
ROCK SPRINGS   CLOUDY    17  11  77 NE16      29.91R HAZE    WCI   2

$$



USA.gov is the U.S. government's official web portal to all federal, state and local government web resources and services.